Regional Weather Roundup
Issued by NWS Green Bay, WI

Home | Current Version | Previous Version | Text Only | Print | Product List | Glossary On
Versions: 1 2 3 4 5 6 7 8 9 10 11 12 13 14 15 16 17 18 19 20 21 22 23 24 25 26 27 28 29 30 31 32 33 34 35 36 37 38 39 40 41 42 43 44 45 46 47 48 49 50
000
ASUS43 KGRB 071311
RWRGRB

NORTH-CENTRAL AND NORTHEAST WISCONSIN REGIONAL WEATHER ROUNDUP
NATIONAL WEATHER SERVICE GREEN BAY WI
800 AM CDT TUE JUL 07 2015

WIZ005-009-010>012-018-019-071400-
NORTH CENTRAL WISCONSIN

CITY           SKY/WX    TMP DP  RH WIND       PRES   REMARKS
IRONWOOD       CLOUDY    54  48  82 N7        30.08R
MANITOWISH WTR CLOUDY    52  48  86 N8        30.09R
ARBOR VITAE    CLOUDY    54  48  81 N10       30.08R
EAGLE RIVER    CLOUDY    52  45  76 N10       30.07R
LAND O LAKES   CLOUDY    52  47  82 N10       30.08R
RHINELANDER    PTSUNNY   54  45  71 N7G17     30.08R
PHILLIPS       CLOUDY    51  48  92 NW5       30.10R
ANTIGO         SUNNY     54  47  78 N12       30.05R
TOMAHAWK       MOSUNNY   53  47  82 N12       30.09R
MERRILL        SUNNY     54  49  82 N7        30.08R
$$

WIZ013-073-071400-
NORTHEAST WISCONSIN

CITY           SKY/WX    TMP DP  RH WIND       PRES   REMARKS
IRON MOUNTAIN  PTSUNNY   54  47  77 N10       30.02R
MARINETTE      SUNNY     57  46  67 N12       30.01R
OCONTO         SUNNY     58  50  74 N12       30.01R
$$

WIZ017-030-035>037-045-071400-
CENTRAL WISCONSIN

CITY           SKY/WX    TMP DP  RH WIND       PRES   REMARKS
MEDFORD        SUNNY     53  48  83 N10G16    30.09R
WAUSAU         SUNNY     56  47  71 N10       30.05R
MOSINEE        NOT AVBL
MARSHFIELD     SUNNY     56  46  69 N10       30.07R
WISC RAPIDS    SUNNY     57  47  69 N13       30.06R
STEVENS POINT  SUNNY     54  47  76 N8        30.05S
WAUPACA        CLOUDY    60  56  88 N6        30.03R FOG
SHAWANO        SUNNY     60  49  67 N9        30.04R
CLINTONVILLE   PTSUNNY   59  50  72 NE9       30.03R
$$

WIZ038-039-048-051-071400-
FOX VALLEY

CITY           SKY/WX    TMP DP  RH WIND       PRES   REMARKS
NWS GREEN BAY  CLOUDY    59  48  67 N12       30.02R
APPLETON       PTSUNNY   57  45  62 N13       30.02R
OSHKOSH        MOSUNNY   61  47  59 N13       30.00R
FOND DU LAC    SUNNY     62  51  67 MISG      30.00R
$$

WIZ022-050-052-071400-
EAST CENTRAL WISCONSIN

CITY           SKY/WX    TMP DP  RH WIND       PRES   REMARKS
STURGEON BAY   PTSUNNY   57  46  67 N18       30.02R
MANITOWOC      PTSUNNY   59  51  75 MISG      30.00R
SHEBOYGAN      SUNNY     60  50  69 N10       29.99R
$$

LMZ563-521-522-541>543-071400-
LAKESHORE

STATION/POSITION TIME  TEMP    WIND        PRES    VSBY  WAVE
                       AIR SEA DIR/SP/G                  HT/PER
                 (UTC) (F)     (DEG/KT/KT) (MB)    (MI)  (FT/S)
SHEBOYGAN LKSHOR 1300   58     340/ 13/ 15 1015.7R
KEWAUNEE LKSHORE 1200   57     350/  9/ 14 1014.4R
ALGOMA MARINA    1211          350/  9/ 13   N/A
TWO RIVERS CG    1205   57                 1015.1      6   2
NORTHPORT PIER   1200   57     340/ 18/ 23 1014.9R
N MID LAKE BUOY  1250   53 51  300/ 16/ 19 1014.2R         3/ 4
SISTER BAY LKSHO 1214   58     360/ 20/ 24   N/A
STURGEON BAY CG  1200   57     340/  4     1014.1      6   1
CHAMBERS ISLAND  1200   58     320/ 17/ 21 1015.2R
MENOMINEE LKSHOR 1200   55     330/ 15/ 18 1015.9R
$$


USA.gov is the U.S. government's official web portal to all federal, state and local government web resources and services.